233  
SXUS52 KJAX 271813  
OSOJAX  
OTHER SURFACE OBSERVATIONS  
NATIONAL WEATHER SERVICE JACKSONVILLE FL  
200 PM EDT THU APR 27 2017  
 
FLZ020>025-030>033-035>038-040-271900-   
..FLORIDA
 
 
 
CITY SKY/WX TMP DP RH WIND PRES REMARKS  
CECIL FIELD SUNNY 90 61 37 SW12 29.90F  
HERLONG FIELD NOT AVBL  
FERNANDINA BCH NOT AVBL  
LAKE CITY FAIR 88 63 42 SW12G22 29.91F  
JUNIPER SPGS NOT AVBL  
BUNNELL NOT AVBL  
KEYSTONE HGTS FAIR 90 54 29 S12G17 29.91F  

 
 
GAZ132>136-149>154-162>166-271900-   
..GEORGIA
 
 
 
CITY SKY/WX TMP DP RH WIND PRES REMARKS  
JESUP FAIR 90 57 33 SW10G18 29.88S  
HOMERVILLE FAIR 90 64 43 SW16G23 29.89F  
SWAINSBORO FAIR 86 63 45 SW12G22 29.86F  
CORDELE NOT AVBL  
EASTMAN MOCLDY 87 51 28 SW14G21 29.87F  

 
 
PLEASE NOTE: THESE OBSERVATIONS ARE NOT QUALITY CONTROLLED AND MAY  
NOT BE AVAILABLE AT ALL TIMES.  

 
 
 
CLICK HERE TO GO TO PREVIOUS BULLETINS.

The Nexlab FL Page
The Nexlab GA Page Main Text Page